This demonstration page uses our WeatherBlox Daily Observations layout. Learn more.

41.55636, -103.73856

Hourly Observations for February 1, 2019

Temp ( °F °C ) Dew Point ( °F °C ) Humidity (%) Winds ( mph kmh ) Pressure ( in mb ) Visibility ( mi km ) Precip ( " mm )
12:58 am 00:58 Clear 38 3.4 18 -7.6 45 45 WNW 16 26 30.02 1017 10 16.0934 N/A
1:58 am 01:58 Clear 35 1.8 19 -7.1 52 52 W 14 22 30.04 1017 10 16.0934 N/A
2:58 am 02:58 Clear 35 1.6 19 -7.1 53 53 WNW 10 17 30.04 1017 10 16.0934 N/A
3:58 am 03:58 Clear 32 0.2 20 -6.6 61 61 WSW 12 19 30.05 1018 10 16.0934 N/A
4:58 am 04:58 Clear 30 -1.2 20 -6.5 68 68 WSW 12 19 30.03 1017 10 16.0934 N/A
5:58 am 05:58 Clear 34 1 17 -8.5 50 50 WSW 13 20 30.01 1016 10 16.0934 N/A
6:58 am 06:58 Clear 33 0.6 17 -8.1 53 53 WSW 13 20 29.98 1015 10 16.0934 N/A
7:58 am 07:58 Clear 33 0.4 16 -8.9 50 50 WSW 15 24 29.97 1015 10 16.0934 N/A
8:58 am 08:58 Clear 33 0.3 16 -9 50 50 SW 7 11 29.97 1015 10 16.0934 N/A
9:58 am 09:58 Clear 36 2.3 16 -8.9 44 44 W 18 30 29.95 1014 10 16.0934 N/A
10:58 am 10:58 Clear 34 0.9 16 -8.9 48 48 W 16 26 29.95 1014 10 16.0934 N/A
11:58 am 11:58 Clear 36 2 17 -8.5 46 46 W 16 26 29.98 1015 10 16.0934 N/A
12:58 pm 12:58 Clear 33 0.8 17 -8.6 50 50 WSW 14 22 30 1016 10 16.0934 N/A
1:58 pm 13:58 Clear 33 0.8 17 -8.5 50 50 WSW 9 15 30.03 1017 10 16.0934 N/A
2:58 pm 14:58 Sunny 35 1.7 17 -8.1 49 49 W 10 17 30.02 1017 10 16.0934 N/A
3:58 pm 15:58 Sunny 43 6.3 17 -8.1 35 35 W 14 22 30.03 1017 10 16.0934 N/A
4:58 pm 16:58 Sunny 46 7.6 19 -7.2 35 35 W 15 24 30.03 1017 10 16.0934 N/A
5:58 pm 17:58 Sunny 50 9.8 18 -7.9 28 28 WNW 22 35 30.01 1016 10 16.0934 N/A
6:58 pm 18:58 Sunny 53 11.5 18 -7.8 25 25 WNW 10 17 29.97 1015 10 16.0934 N/A
7:58 pm 19:58 Sunny 55 12.9 19 -7.5 24 24 W 12 19 29.92 1013 10 16.0934 N/A
8:58 pm 20:58 Sunny 57 13.8 17 -8.1 21 21 NW 6 9 29.9 1013 10 16.0934 N/A
9:56 pm 21:56 Sunny 57 14.1 20 -6.6 23 23 SSW 8 13 29.9 1012 10 16.0934 N/A
10:56 pm 22:56 Sunny 55 12.9 20 -6.8 25 25 SSW 7 11 29.91 1013 10 16.0934 N/A

Powered by AerisWeather